[[{"header":{"parameterUnit":"m.s-1","parameterCategory":1,"la1":30.2991,"la2":30.254,"lo1":-89.0895,"lo2":-89.0444,"dx":0.0017,"dy":0.0017,"nx":28,"ny":28,"refTime":"2022-11-07T03:00:00:Z","depth":0,"parameterNumber":2,"parameterNumberName":"U-component_of_WINDS"},"data":[0,0,0,0,0,0,0,0,0,0,0,0,0,0,0,0,0,0,0,0,0,0,0,0,0,0,0,0,0,0,0,0,0,0,0,0,0,0,0,0,0,0,0,0,0,0,0,0,0,0,0,0,0,0,0,0,0,0,-2.6974,-2.6973,0,-2.6908,-2.6907,-2.6906,-2.6804,-2.6803,-2.6801,-2.6799,-2.6732,-2.6732,-2.6732,0,0,0,0,0,0,0,0,0,0,0,0,0,-2.7014,-2.7014,-2.6974,-2.6973,-2.6972,-2.6908,-2.6907,-2.6906,-2.6805,-2.6802,-2.68,-2.6798,-2.6732,-2.6732,-2.6732,0,0,0,0,0,0,0,0,0,0,0,0,0,-2.6977,-2.7014,-2.6974,-2.6914,-2.6908,-2.6908,-2.6907,-2.6906,-2.6805,-2.6802,-2.68,-2.6797,-2.6732,-2.6732,-2.6732,-2.6786,0,0,-2.6732,-2.6732,0,0,0,0,0,0,0,0,-2.698,-2.6976,-2.6923,-2.6918,-2.6911,-2.6862,-2.6897,-2.6866,-2.6806,-2.6844,-2.6799,-2.6796,-2.6778,-2.6774,-2.6767,-2.6783,-2.678,-2.6732,-2.6732,-2.6732,-2.6732,0,0,0,0,0,0,0,-2.6982,-2.6978,-2.6948,-2.6923,-2.6915,-2.6891,-2.6883,-2.689,-2.6827,-2.6841,-2.6833,-2.6827,-2.6774,-2.6768,-2.6765,-2.6779,-2.6732,-2.6732,-2.6732,-2.6732,-2.6839,-2.6842,0,0,0,0,0,0,-2.6994,-2.6981,-2.695,-2.6946,-2.6939,-2.6892,-2.6883,-2.688,-2.6827,-2.6816,-2.6829,-2.6822,-2.6769,-2.6765,-2.6762,-2.6823,-2.6732,-2.6732,-2.6732,-2.6836,-2.684,-2.6843,0,0,0,0,0,0,-2.6995,-2.6992,-2.6952,-2.6961,-2.6955,-2.6895,-2.6892,-2.688,-2.6874,-2.6818,-2.6806,-2.6834,-2.6767,-2.6762,-2.6782,-2.682,-2.6732,-2.6731,-2.6833,-2.6837,-2.6841,-2.6946,0,0,0,0,0,0,-2.6996,-2.6993,-2.7012,-2.6963,-2.6954,-2.6973,-2.6894,-2.6881,-2.6874,-2.6864,-2.682,-2.681,-2.6764,-2.6782,-2.6782,-2.6818,-2.6731,-2.6829,-2.6835,-2.684,-2.6939,-2.6953,-2.6966,0,0,0,0,0,-2.6998,-2.7044,-2.7013,-2.701,-2.6977,-2.6975,-2.697,-2.6917,-2.6878,-2.6897,-2.6861,-2.6811,-2.6816,-2.6785,-2.6783,-2.682,-2.6826,-2.6833,-2.684,-2.6933,-2.695,-2.6965,0,0,0,0,0,0,-2.7099,-2.7036,-2.7002,-2.7032,-2.701,-2.6958,-2.698,-2.6937,-2.6925,-2.6916,-2.6851,-2.6842,-2.687,-2.6847,-2.6814,-2.6871,-2.6814,-2.682,-2.6885,-2.6901,-2.6915,-2.692,-2.6731,0,0,0,0,0,-2.7124,-2.7127,-2.7073,-2.7105,-2.7096,-2.7041,-2.7037,-2.6998,-2.6972,-2.6962,-2.6928,-2.6905,-2.6901,-2.69,-2.6893,-2.6935,-2.6925,-2.696,-2.6974,-2.6985,-2.6991,-2.7014,-2.7029,-2.6865,-2.6864,-2.6864,0,0,-2.7177,-2.7144,-2.7149,-2.7125,-2.7102,-2.7108,-2.7033,-2.7041,-2.7045,-2.6963,-2.6979,-2.6954,-2.6924,-2.6956,-2.6968,-2.6937,-2.7035,-2.6993,-2.7003,-2.7003,-2.7022,-2.7038,-2.7052,-2.6869,-2.6868,-2.6867,0,0,-2.7277,-2.7251,-2.7276,-2.7256,-2.7224,-2.7187,-2.7194,-2.7149,-2.7129,-2.7144,-2.7084,-2.7088,-2.7083,-2.7064,-2.7055,-2.7151,-2.7105,-2.7151,-2.7221,-2.7244,-2.7257,-2.7268,-2.7303,-2.7317,-2.7157,-2.7158,-2.7158,0,-2.7347,-2.7352,-2.7295,-2.7307,-2.7299,-2.7227,-2.7252,-2.7236,-2.7203,-2.72,-2.7166,-2.716,-2.7134,-2.7162,-2.7186,-2.718,-2.7186,-2.7155,-2.7259,-2.727,-2.728,-2.7313,-2.7326,-2.7163,-2.7163,-2.7162,-2.7162,0,-2.744,-2.7445,-2.7469,-2.7441,-2.7435,-2.7454,-2.7401,-2.7403,-2.7365,-2.7333,-2.7351,-2.7319,-2.7305,-2.7309,-2.7272,-2.7332,-2.7314,-2.7271,-2.7212,-2.7302,-2.7332,-2.7344,-2.7172,-2.717,-2.7168,-2.7167,0,0,-2.7599,-2.754,-2.755,-2.7537,-2.7498,-2.7501,-2.7518,-2.7505,-2.7508,-2.7489,-2.7503,-2.7501,-2.7462,-2.7451,-2.7412,-2.7432,-2.7513,-2.7387,-2.7385,-2.7412,-2.7578,-2.7611,-2.7626,-2.7482,-2.7484,-2.7486,-2.7581,0,-2.7691,-2.7716,-2.7666,-2.7704,-2.7708,-2.7641,-2.7656,-2.7635,-2.7606,-2.7606,-2.7574,-2.7575,-2.7522,-2.7516,-2.7532,-2.7499,-2.7545,-2.7492,-2.7495,-2.7496,-2.7504,-2.7642,-2.7676,-2.7767,-2.7592,-2.7594,-2.7596,0,-2.78,-2.7788,-2.7826,-2.7786,-2.7786,-2.7801,-2.7786,-2.7787,-2.7762,-2.774,-2.773,-2.7684,-2.77,-2.7644,-2.7665,-2.763,-2.7628,-2.7613,-2.7615,-2.7613,-2.7551,-2.7644,-2.7794,-2.7808,-2.7613,-2.7612,-2.7611,0,-2.7913,-2.7906,-2.7928,-2.7919,-2.7873,-2.7885,-2.7867,-2.7839,-2.7836,-2.7824,-2.7821,-2.7811,-2.7806,-2.78,-2.7753,-2.7716,-2.7781,-2.772,-2.7764,-2.7765,-2.778,-2.7779,-2.7932,-2.7779,-2.7779,-2.7779,-2.7779,0,-2.8021,-2.8047,-2.7979,-2.7992,-2.8021,-2.7964,-2.7994,-2.7969,-2.7946,-2.7954,-2.7896,-2.7906,-2.7844,-2.7847,-2.7812,-2.7836,-2.7833,-2.7817,-2.7807,-2.7822,-2.7824,-2.782,-2.7812,-2.7782,-2.7782,-2.7781,-2.778,0,-2.8151,-2.8106,-2.8126,-2.8082,-2.8072,-2.8095,-2.8057,-2.8069,-2.8038,-2.805,-2.8049,-2.8,-2.8001,-2.7955,-2.7946,-2.7922,-2.7962,-2.7941,-2.7971,-2.7964,-2.8011,-2.8007,-2.8166,-2.8184,-2.802,-2.8022,-2.8023,0,-2.8222,-2.8241,-2.82,-2.8202,-2.8186,-2.819,-2.8186,-2.8133,-2.8131,-2.8106,-2.8121,-2.8118,-2.8112,-2.8118,-2.8082,-2.8076,-2.8054,-2.8111,-2.8053,-2.8068,-2.8056,-2.8056,-2.8058,-2.8123,-2.8125,-2.8126,-2.8128,0,-2.8354,-2.8332,-2.8329,-2.8319,-2.8317,-2.8306,-2.8292,-2.8297,-2.8239,-2.8241,-2.8242,-2.8238,-2.823,-2.8228,-2.8216,-2.8198,-2.8154,-2.8146,-2.8156,-2.8172,-2.8188,-2.8181,-2.8004,-2.8143,-2.8141,-2.814,-2.8139,-2.8139,-2.8457,-2.8472,-2.8445,-2.8445,-2.8429,-2.8418,-2.8427,-2.8397,-2.8397,-2.8387,-2.8356,-2.8363,-2.834,-2.8319,-2.8305,-2.8311,-2.8283,-2.8297,-2.83,-2.8305,-2.8314,-2.8188,-2.8308,-2.8308,-2.8307,-2.8307,-2.8307,0,-2.8587,-2.8567,-2.8567,-2.855,-2.855,-2.8509,-2.8492,-2.8495,-2.8502,-2.8484,-2.848,-2.8483,-2.8481,-2.8446,-2.8441,-2.8452,-2.8432,-2.8453,-2.8451,-2.8448,-2.8339,-2.8331,-2.8469,-2.8469,-2.8469,-2.8469,-2.8469,-2.8469,-2.8654,-2.8676,-2.8652,-2.8667,-2.8647,-2.8653,-2.8647,-2.8638,-2.8623,-2.8629,-2.8627,-2.8605,-2.8581,-2.8574,-2.8571,-2.8561,-2.8562,-2.859,-2.8573,-2.8471,-2.8456,-2.8441,-2.8433,-2.8591,-2.8591,-2.8682,-2.8683,-2.8684]},{"header":{"parameterUnit":"m.s-1","parameterCategory":1,"la1":30.2991,"la2":30.254,"lo1":-89.0895,"lo2":-89.0444,"dx":0.0017,"dy":0.0017,"nx":28,"ny":28,"refTime":"2022-11-07T03:00:00:Z","depth":0,"parameterNumber":3,"parameterNumberName":"V-component_of_WINDS"},"data":[0,0,0,0,0,0,0,0,0,0,0,0,0,0,0,0,0,0,0,0,0,0,0,0,0,0,0,0,0,0,0,0,0,0,0,0,0,0,0,0,0,0,0,0,0,0,0,0,0,0,0,0,0,0,0,0,0,0,1.8072,1.8072,0,1.8092,1.8092,1.8093,1.816,1.8161,1.8163,1.8164,1.8179,1.8178,1.8177,0,0,0,0,0,0,0,0,0,0,0,0,0,1.8086,1.8085,1.8072,1.8072,1.8072,1.8092,1.8092,1.8093,1.816,1.8161,1.8163,1.8165,1.8179,1.8178,1.8177,0,0,0,0,0,0,0,0,0,0,0,0,0,1.809,1.8085,1.8071,1.8108,1.8112,1.8092,1.8092,1.8093,1.8159,1.8161,1.8164,1.8166,1.818,1.8178,1.8177,1.8122,0,0,1.8172,1.8172,0,0,0,0,0,0,0,0,1.809,1.8089,1.8102,1.8106,1.8109,1.8126,1.8103,1.8102,1.8159,1.8141,1.8164,1.8167,1.8159,1.8159,1.8158,1.8122,1.8123,1.8172,1.8171,1.817,1.817,0,0,0,0,0,0,0,1.8089,1.8089,1.808,1.8102,1.8107,1.8122,1.8125,1.8103,1.8137,1.8143,1.8148,1.8149,1.8161,1.8159,1.8159,1.8123,1.8172,1.8171,1.817,1.8169,1.8044,1.8042,0,0,0,0,0,0,1.8085,1.8088,1.8079,1.808,1.8105,1.812,1.8123,1.8118,1.8137,1.8142,1.8147,1.8152,1.8161,1.8161,1.816,1.8097,1.817,1.8169,1.8168,1.8046,1.8044,1.8041,0,0,0,0,0,0,1.8085,1.8083,1.8078,1.8086,1.8086,1.8117,1.8111,1.8117,1.8116,1.8141,1.8147,1.8139,1.8163,1.8162,1.8131,1.8098,1.8168,1.8167,1.8049,1.8046,1.8042,1.7969,0,0,0,0,0,0,1.8085,1.8083,1.8063,1.8085,1.8086,1.805,1.8109,1.8116,1.8113,1.812,1.8135,1.814,1.8164,1.8133,1.813,1.8097,1.8166,1.8052,1.8048,1.8043,1.7975,1.7964,1.7954,0,0,0,0,0,1.8085,1.804,1.8062,1.806,1.8062,1.8048,1.8048,1.808,1.811,1.809,1.8107,1.8139,1.8103,1.813,1.8126,1.8093,1.8055,1.8049,1.8044,1.798,1.7966,1.7955,0,0,0,0,0,0,1.8011,1.8044,1.8068,1.8029,1.8036,1.806,1.8035,1.8064,1.8061,1.8067,1.8104,1.8107,1.8071,1.8079,1.8108,1.8041,1.8084,1.8078,1.8036,1.8024,1.8014,1.8012,1.8164,0,0,0,0,0,1.7991,1.7979,1.8007,1.797,1.7972,1.8003,1.7998,1.8022,1.803,1.8032,1.8047,1.8051,1.8041,1.8033,1.8025,1.7977,1.7981,1.7953,1.7942,1.7934,1.7927,1.7903,1.789,1.8023,1.8023,1.8023,0,0,1.7947,1.7964,1.7953,1.7956,1.7964,1.7949,1.8005,1.7987,1.7976,1.8029,1.8001,1.8012,1.802,1.798,1.7964,1.7986,1.7892,1.7927,1.792,1.7918,1.7896,1.7883,1.7872,1.802,1.802,1.8021,0,0,1.7861,1.7872,1.7843,1.7851,1.7863,1.7884,1.7877,1.7898,1.7907,1.7881,1.7921,1.7908,1.789,1.7894,1.7893,1.7811,1.784,1.7807,1.7752,1.7728,1.7717,1.7708,1.7678,1.7667,1.7801,1.7801,1.78,0,1.7804,1.7786,1.7824,1.7804,1.7803,1.7854,1.7824,1.7829,1.7837,1.7834,1.786,1.7839,1.7848,1.781,1.779,1.7789,1.7781,1.7804,1.7716,1.7707,1.7699,1.7671,1.766,1.7796,1.7797,1.7797,1.7798,0,1.7716,1.7702,1.7677,1.7686,1.7683,1.7658,1.7691,1.7683,1.7708,1.7726,1.7698,1.7711,1.7707,1.77,1.7723,1.7666,1.7679,1.771,1.7754,1.7682,1.7656,1.7645,1.779,1.7792,1.7793,1.7794,0,0,1.7581,1.7614,1.7603,1.7609,1.7627,1.7616,1.7594,1.7592,1.7584,1.7589,1.757,1.7554,1.7583,1.7583,1.7607,1.7586,1.7519,1.7619,1.762,1.7599,1.7457,1.7432,1.7419,1.754,1.7538,1.7537,1.7456,0,1.7498,1.7463,1.7497,1.7454,1.7441,1.749,1.7471,1.7479,1.7496,1.7487,1.7505,1.7493,1.7533,1.7533,1.7514,1.7531,1.7491,1.7538,1.7521,1.752,1.7516,1.7406,1.7379,1.7302,1.7446,1.7444,1.7443,0,1.7396,1.7399,1.7355,1.7378,1.7374,1.7355,1.7357,1.7349,1.7359,1.7373,1.7373,1.7404,1.7382,1.7427,1.7397,1.7428,1.7423,1.7431,1.7429,1.7426,1.7475,1.7399,1.7279,1.7266,1.7427,1.7428,1.743,0,1.7301,1.7293,1.7267,1.727,1.7296,1.7281,1.7291,1.7305,1.7302,1.7303,1.7301,1.7299,1.7297,1.7294,1.7323,1.7353,1.7288,1.7336,1.7298,1.7297,1.728,1.728,1.7155,1.728,1.728,1.728,1.728,0,1.7204,1.7175,1.7224,1.7207,1.7176,1.7216,1.7184,1.7199,1.721,1.7196,1.7238,1.7224,1.7264,1.7253,1.7276,1.7247,1.7246,1.7255,1.7261,1.7251,1.7249,1.7246,1.7252,1.7277,1.7278,1.7278,1.7279,0,1.7091,1.7124,1.7097,1.7125,1.7132,1.7107,1.7131,1.7115,1.7136,1.7118,1.7116,1.7147,1.7138,1.7167,1.7161,1.7176,1.7134,1.7149,1.7131,1.7135,1.7095,1.7098,1.6962,1.6946,1.7082,1.708,1.7079,0,1.7027,1.7006,1.7033,1.7028,1.7036,1.7027,1.7025,1.7063,1.7059,1.7071,1.7054,1.7048,1.7046,1.7027,1.7048,1.7044,1.7059,1.7012,1.7058,1.7048,1.7057,1.7057,1.7055,1.7001,1.7,1.6998,1.6997,0,1.6908,1.6926,1.6923,1.6925,1.6922,1.6925,1.6931,1.6924,1.6966,1.6959,1.695,1.6948,1.6944,1.6937,1.6938,1.6946,1.6978,1.6983,1.6974,1.6962,1.6951,1.6956,1.7103,1.6985,1.6986,1.6987,1.6988,1.6988,1.6817,1.6801,1.6818,1.6813,1.6822,1.6827,1.6815,1.6835,1.683,1.683,1.6853,1.684,1.6852,1.6857,1.6863,1.6852,1.6873,1.686,1.6856,1.6852,1.6845,1.6955,1.6852,1.6853,1.6853,1.6853,1.6854,0,1.67,1.6714,1.6709,1.6718,1.6714,1.6747,1.6756,1.6749,1.6738,1.6748,1.6745,1.6735,1.6729,1.6751,1.6748,1.6736,1.675,1.6733,1.6734,1.6735,1.6827,1.6834,1.6722,1.6722,1.6722,1.6722,1.6722,1.6722,1.6639,1.6614,1.6633,1.6613,1.6627,1.6616,1.6618,1.6623,1.6631,1.6619,1.6615,1.6631,1.6645,1.6644,1.6639,1.6646,1.6642,1.662,1.6631,1.6716,1.6729,1.6741,1.6748,1.6619,1.6619,1.6541,1.654,1.6539]}]]